EW0322 Weather Reports


Display with metric or nautical units.
time (UTC)temp
F
wind
direction
speed
MPH
gust
MPH
rain 1hr
in
rain 24hr
in
rain mn
in
humidity
%
barometer
mb
20260904094546 73 238 3.0 10.0 0.00 0.03 0.03 58 1005.2
20260904093048 73 239 1.0 9.0 0.00 0.03 0.03 59 1005.0
20260904091552 73 237 3.0 10.0 0.00 0.03 0.03 59 1005.1
20260904090043 73 240 3.0 9.0 0.00 0.03 0.03 60 1005.3
20260904084541 74 236 2.0 9.0 0.00 0.03 0.03 60 1005.4
20260904083040 74 238 0.0 1.0 0.00 0.03 0.03 59 1005.4
20260904081539 75 238 0.0 8.0 0.00 0.03 0.03 59 1005.4
20260904080038 75 237 0.0 2.0 0.00 0.03 0.03 60 1005.5
20260904074552 75 238 0.0 3.0 0.00 0.03 0.03 61 1005.5
20260904073035 75 237 0.0 3.0 0.00 0.03 0.03 61 1005.5
20260904071548 76 237 0.0 7.0 0.01 0.03 0.03 62 1005.7
20260904070034 75 237 0.0 3.0 0.03 0.03 0.03 62 1005.9
20260904064543 75 237 2.0 9.0 0.03 0.03 0.03 62 1006.0
20260904063032 75 167 6.0 9.0 0.03 0.03 0.03 62 1005.6
20260904061510 76 185 3.0 10.0 0.02 0.02 0.02 59 1005.1
20260904060008 78 190 4.0 10.0 0.00 0.00 0.00 54 1004.8
20260904054503 78 197 3.0 8.0 0.00 0.00 0.00 52 1004.6
20260904053002 79 175 1.0 7.0 0.00 0.00 0.00 51 1004.3
20260904051501 79 177 2.0 8.0 0.00 0.00 0.00 50 1004.1
20260904050107 80 169 4.0 9.0 0.00 0.00 0.00 49 1004.3
20260904044614 80 140 3.0 11.0 0.00 0.00 0.00 48 1004.3
20260904043101 83 153 5.0 12.0 0.00 0.00 0.00 42 1004.0
20260904041558 88 233 2.0 6.0 0.00 0.00 0.00 31 1003.2
20260904040057 88 234 0.0 2.0 0.00 0.00 0.00 31 1002.9
20260904034557 89 233 0.0 2.0 0.00 0.00 0.00 31 1002.8
20260904033100 89 233 0.0 3.0 0.00 0.00 0.00 30 1002.6
20260904031605 89 234 0.0 5.0 0.00 0.00 0.00 30 1002.5
20260904030055 90 234 0.0 5.0 0.00 0.00 0.00 29 1002.3
20260904024555 90 235 0.0 9.0 0.00 0.00 0.00 28 1002.0
20260904023054 90 236 2.0 8.0 0.00 0.00 0.00 28 1001.7
20260904021554 90 234 2.0 8.0 0.00 0.00 0.00 27 1001.4
20260904020054 90 234 1.0 7.0 0.00 0.00 0.00 28 1001.2
20260904014553 91 234 1.0 8.0 0.00 0.00 0.00 27 1001.2
20260904013052 91 237 2.0 7.0 0.00 0.00 0.00 27 1001.2
20260904011553 92 238 1.0 8.0 0.00 0.00 0.00 26 1001.1
20260904010053 92 237 1.0 4.0 0.00 0.00 0.00 25 1001.1
20260904004551 93 237 0.0 5.0 0.00 0.00 0.00 25 1000.9
20260904003050 93 234 1.0 7.0 0.00 0.00 0.00 25 1000.9
20260904001549 93 234 0.0 5.0 0.00 0.00 0.00 25 1000.8
20260904000049 94 236 0.0 8.0 0.00 0.00 0.00 25 1000.9
20260903234549 94 236 2.0 5.0 0.00 0.00 0.00 25 1000.8
20260903233050 96 234 1.0 5.0 0.00 0.00 0.00 24 1000.8
20260903231550 97 238 0.0 4.0 0.00 0.00 0.00 24 1000.8
20260903230049 96 235 0.0 6.0 0.00 0.00 0.00 24 1000.9
20260903224546 96 221 1.0 6.0 0.00 0.00 0.00 24 1001.0
20260903223043 96 227 0.0 7.0 0.00 0.00 0.00 24 1001.1
20260903221548 95 194 4.0 13.0 0.00 0.00 0.00 24 1001.2
20260903220041 96 225 4.0 10.0 0.00 0.00 0.00 25 1001.3
20260903214539 98 238 0.0 5.0 0.00 0.00 0.00 24 1001.6
20260903213036 96 238 2.0 9.0 0.00 0.00 0.00 26 1001.7
20260903211533 97 248 0.0 8.0 0.00 0.00 0.00 25 1001.9
20260903210030 97 249 1.0 9.0 0.00 0.00 0.00 25 1002.2
20260903204527 95 236 1.0 9.0 0.00 0.00 0.00 26 1002.5
20260903203034 96 240 1.0 10.0 0.00 0.00 0.00 25 1002.7
20260903201524 94 205 0.0 7.0 0.00 0.00 0.00 28 1002.8
20260903200038 95 233 3.0 10.0 0.00 0.00 0.00 26 1003.1
20260903194535 96 260 0.0 4.0 0.00 0.00 0.00 26 1003.2
20260903193025 95 245 0.0 5.0 0.00 0.00 0.00 27 1003.4
20260903191515 93 234 2.0 7.0 0.00 0.00 0.00 28 1003.7
20260903190016 93 237 1.0 9.0 0.00 0.00 0.00 28 1003.9
20260903184513 96 236 0.0 4.0 0.00 0.00 0.00 26 1004.2
20260903183008 94 234 1.0 4.0 0.00 0.00 0.00 27 1004.5
20260903181504 93 239 0.0 8.0 0.00 0.00 0.00 29 1004.8
20260903180116 92 240 1.0 10.0 0.00 0.00 0.00 31 1005.1
20260903174556 91 237 1.0 7.0 0.00 0.00 0.00 32 1005.4
20260903173044 90 238 1.0 9.0 0.00 0.00 0.00 34 1005.4
20260903171516 90 241 2.0 11.0 0.00 0.00 0.00 34 1005.4
20260903170013 88 227 3.0 6.0 0.00 0.00 0.00 34 1005.5
20260903164510 87 234 3.0 9.0 0.00 0.00 0.00 36 1005.5
20260903163011 85 232 3.0 8.0 0.00 0.00 0.00 38 1005.5
20260903161508 86 230 3.0 7.0 0.00 0.00 0.00 37 1005.4
20260903160007 85 234 1.0 5.0 0.00 0.00 0.00 40 1005.5
20260903154506 83 232 1.0 7.0 0.00 0.00 0.00 42 1005.6
20260903153005 83 234 1.0 6.0 0.00 0.00 0.00 41 1005.5
20260903151505 83 240 1.0 7.0 0.00 0.00 0.00 42 1005.6
20260903150001 82 235 2.0 7.0 0.00 0.00 0.00 43 1005.7
20260903144600 82 229 2.0 8.0 0.00 0.00 0.00 43 1005.7
20260903143057 81 241 1.0 9.0 0.00 0.00 0.00 44 1005.8
20260903141554 79 240 2.0 9.0 0.00 0.00 0.00 46 1005.9
20260903140049 78 240 2.0 9.0 0.00 0.00 0.00 47 1006.0
20260903134548 78 240 0.0 8.0 0.00 0.00 0.00 47 1005.9
20260903133045 77 240 2.0 10.0 0.00 0.00 0.00 47 1005.9
20260903131541 77 242 1.0 4.0 0.00 0.00 0.00 47 1005.8
20260903130053 77 246 0.0 8.0 0.00 0.00 0.00 47 1005.6
20260903124534 77 248 0.0 4.0 0.00 0.00 0.00 47 1005.5
20260903123035 77 246 1.0 7.0 0.00 0.00 0.00 46 1005.7
20260903121535 78 235 2.0 10.0 0.00 0.00 0.00 45 1005.5
20260903120030 78 239 1.0 7.0 0.00 0.00 0.00 45 1005.2
20260903114525 78 239 0.0 3.0 0.00 0.00 0.00 45 1004.9
20260903113033 78 238 0.0 7.0 0.00 0.00 0.00 45 1004.8
20260903111524 78 238 0.0 8.0 0.00 0.00 0.00 45 1004.8
20260903110051 78 238 0.0 7.0 0.00 0.00 0.00 45 1004.7
20260903104521 78 238 0.0 7.0 0.00 0.00 0.00 46 1004.6
20260903103023 78 238 0.0 10.0 0.00 0.00 0.00 46 1004.7
20260903101522 78 238 2.0 9.0 0.00 0.00 0.00 46 1004.7
20260903100025 78 238 3.0 7.0 0.00 0.00 0.00 46 1004.7